星链-1538 (STARLINK-1538 )

导读 | 豆包AI

STARLINK-1538是美国太空探索技术公司星链卫星互联网项目的组成部分,于2020年8月7日发射升空,属于星链低轨卫星网络组网卫星之一。该卫星运行在近地轨道,为全球提供高速互联网接入服务,是马斯克星链计划大规模组网部署中的一颗标准卫星。

基本信息
目录编号:
46071
目录名称:
STARLINK-1538
国际标识:
2020-055AW
轨道中心:
EARTH
卫星名称:
星链-1538
卫星全名:
星链-1538 (STARLINK-1538 )
卫星状态:
已陨落 最后检测时间 2024-12-31
发射日期:
2020-08-07 UTC
国别 :
美国 (US)
星等 :
--
轨道信息
数据来源 国际轨道数据
星历时间: 2024-12-31T09:57:22+0800
轨道信息已过期438天
半长轴: 6547.019km
偏心率: 0.0003292
轨道倾角: 53.021°
近地点辐角 191.571°
升交点赤经 221.802°
平近点角 212.183°
近地点: 166.728km
远地点: 171.04km
周期: 87.867分钟
每日圈数: 16.388433
详细信息
固有亮度:
5
最大亮度:
2.5
卫星平台:
Starlink V1.0
覆盖范围:
全球
运营商:
太空探索技术公司
运营商所在国:
美国
制造商(研发单位):
太空探索技术公司
制造商所在国:
美国
使用方式:
暂无
卫星简介
星链(Starlink)计划是由太空探索技术公司(SpaceX)提出的一个巨型低轨卫星互联网星座项目,计划在2019年至2024年间在太空搭建由约1.2万颗卫星组成的“星链”网络,其中1584颗将部署在地球上空550千米处的近地轨道,并从2020年开始工作。该卫星仍在工作。